AFR3773 UUEE-LFMN

Flight info

Callsign AFR3773
Flight time N/A
Altitude 26000
Route LIDRI3H LIDRI T781 REPNU N858 VEPIS Y219 LAPKI N869 OSMUS M984 LETKI/N0404F260 M984 TUSIN DCT UPLAV DCT NAVTI DCT LIMRA DCT DETSA DCT DIBAX DCT VAKON DCT DEVOX DCT BORDI
Aircraft A321/M-SDE3FGHIRWY/LB1

Departure

Time 2026-05-01 08:32
Airport Sheremetyevo International Airport (UUEE)

Arrival

Time N/A
Airport Nice-Côte d'Azur Airport (LFMN)
Time Latitude Longitude Altitude Speed Heading
2026-05-01 08:15 55.96764 37.41513 634 ft 0 kts 163°
2026-05-01 08:27 55.96760 37.41525 640 ft 2 kts 105°
2026-05-01 08:27 55.96776 37.41553 634 ft 4 kts 35°
2026-05-01 08:27 55.96803 37.41587 634 ft 5 kts 34°
2026-05-01 08:28 55.96837 37.41629 634 ft 7 kts 34°
2026-05-01 08:28 55.96866 37.41694 641 ft 8 kts 99°
2026-05-01 08:28 55.96876 37.41801 638 ft 9 kts 76°
2026-05-01 08:28 55.96917 37.41894 640 ft 11 kts 21°
2026-05-01 08:29 55.96989 37.41955 642 ft 13 kts 49°
2026-05-01 08:29 55.97022 37.42136 635 ft 20 kts 73°
2026-05-01 08:29 55.97058 37.42376 635 ft 21 kts 76°
2026-05-01 08:29 55.97096 37.42627 635 ft 21 kts 75°
2026-05-01 08:30 55.97134 37.42886 637 ft 22 kts 77°
2026-05-01 08:30 55.97210 37.43016 635 ft 16 kts 14°
2026-05-01 08:30 55.97316 37.42995 636 ft 8 kts 339°
2026-05-01 08:30 55.97357 37.42923 637 ft 10 kts 274°
2026-05-01 08:31 55.97341 37.42787 637 ft 21 kts 256°
2026-05-01 08:31 55.97231 37.42101 636 ft 93 kts 255°
2026-05-01 08:31 55.97008 37.40630 638 ft 149 kts 255°
2026-05-01 08:31 55.96709 37.38678 985 ft 161 kts 253°
2026-05-01 08:32 55.96422 37.36780 1596 ft 165 kts 255°
2026-05-01 08:32 55.96126 37.34772 2197 ft 170 kts 254°
2026-05-01 08:32 55.95803 37.32617 2577 ft 194 kts 254°
2026-05-01 08:32 55.95439 37.30183 3054 ft 211 kts 255°
2026-05-01 08:33 55.95038 37.27515 3397 ft 236 kts 255°
2026-05-01 08:33 55.94593 37.24557 3900 ft 253 kts 255°
2026-05-01 08:33 55.94130 37.21484 4648 ft 259 kts 256°
2026-05-01 08:33 55.93659 37.18367 5439 ft 262 kts 256°
2026-05-01 08:34 55.93188 37.15259 6219 ft 265 kts 256°
2026-05-01 08:34 55.92709 37.12092 6983 ft 268 kts 256°
2026-05-01 08:34 55.92218 37.08853 7746 ft 271 kts 257°
2026-05-01 08:34 55.91722 37.05585 8513 ft 275 kts 257°
2026-05-01 08:35 55.91218 37.02277 9246 ft 279 kts 258°
2026-05-01 08:35 55.90948 36.98856 9764 ft 280 kts 271°
2026-05-01 08:35 55.90966 36.95378 10017 ft 281 kts 274°
2026-05-01 08:35 55.91018 36.91893 10065 ft 282 kts 274°
2026-05-01 08:36 55.91064 36.88390 10137 ft 283 kts 274°
2026-05-01 08:36 55.91101 36.84936 10188 ft 283 kts 273°
2026-05-01 08:36 55.91139 36.81423 10212 ft 283 kts 273°
2026-05-01 08:36 55.91173 36.77907 10219 ft 284 kts 273°
2026-05-01 08:37 55.91023 36.74399 10239 ft 290 kts 261°
2026-05-01 08:37 55.90543 36.70746 10437 ft 315 kts 258°
2026-05-01 08:37 55.89991 36.66915 10875 ft 327 kts 258°
2026-05-01 08:37 55.89421 36.62960 11548 ft 332 kts 258°
2026-05-01 08:38 55.88853 36.58994 12221 ft 337 kts 258°
2026-05-01 08:38 55.88276 36.54920 12877 ft 342 kts 258°
2026-05-01 08:38 55.87691 36.50799 13523 ft 346 kts 258°
2026-05-01 08:38 55.87100 36.46620 14156 ft 350 kts 259°
2026-05-01 08:39 55.86555 36.42373 14760 ft 354 kts 261°
2026-05-01 08:39 55.86028 36.38067 15351 ft 358 kts 261°
2026-05-01 08:39 55.85494 36.33704 15936 ft 363 kts 261°
2026-05-01 08:39 55.84955 36.29298 16506 ft 367 kts 261°
2026-05-01 08:40 55.83850 36.20392 17612 ft 375 kts 261°
2026-05-01 08:40 55.83288 36.15841 18151 ft 379 kts 262°
2026-05-01 08:40 55.82721 36.11247 18677 ft 383 kts 262°
2026-05-01 08:41 55.82141 36.06595 19197 ft 386 kts 262°
2026-05-01 08:41 55.81553 36.01916 19694 ft 390 kts 262°
2026-05-01 08:41 55.80952 35.97189 20186 ft 394 kts 262°
2026-05-01 08:41 55.80345 35.92422 20667 ft 397 kts 262°
2026-05-01 08:42 55.79739 35.87687 21112 ft 400 kts 262°
2026-05-01 08:42 55.79116 35.82843 21564 ft 403 kts 262°
2026-05-01 08:42 55.78490 35.78001 21999 ft 407 kts 262°
2026-05-01 08:42 55.77853 35.73094 22425 ft 409 kts 262°
2026-05-01 08:43 55.77213 35.68151 22834 ft 413 kts 262°
2026-05-01 08:43 55.76560 35.63166 23244 ft 416 kts 262°
2026-05-01 08:43 55.75911 35.58157 23656 ft 418 kts 262°
2026-05-01 08:43 55.75353 35.53081 24057 ft 418 kts 268°
2026-05-01 08:44 55.75085 35.47947 24461 ft 418 kts 271°
2026-05-01 08:44 55.74876 35.42860 24838 ft 421 kts 272°
2026-05-01 08:44 55.74659 35.37657 25226 ft 424 kts 271°
2026-05-01 08:44 55.74439 35.32428 25592 ft 426 kts 271°
2026-05-01 08:45 55.74208 35.27161 25944 ft 429 kts 271°
2026-05-01 08:45 55.73976 35.21871 26298 ft 432 kts 271°
2026-05-01 08:45 55.73733 35.16539 26642 ft 434 kts 271°
2026-05-01 08:45 55.73486 35.11191 26959 ft 437 kts 271°
2026-05-01 08:46 55.73230 35.05790 27257 ft 440 kts 272°
2026-05-01 08:46 55.72986 35.00434 27550 ft 443 kts 272°
2026-05-01 08:46 55.72741 34.94983 27857 ft 445 kts 272°
2026-05-01 08:46 55.72491 34.89511 28141 ft 447 kts 272°
2026-05-01 08:47 55.72233 34.83982 28408 ft 450 kts 272°
2026-05-01 08:47 55.71971 34.78436 28675 ft 453 kts 272°
2026-05-01 08:47 55.71706 34.72911 28934 ft 455 kts 272°
2026-05-01 08:47 55.71436 34.67294 29191 ft 458 kts 272°
2026-05-01 08:48 55.71149 34.61659 29455 ft 462 kts 271°
2026-05-01 08:48 55.70485 34.56007 29691 ft 475 kts 259°
2026-05-01 08:48 55.69411 34.50514 29918 ft 481 kts 256°
2026-05-01 08:48 55.68236 34.44953 30130 ft 484 kts 256°
2026-05-01 08:49 55.67044 34.39356 30342 ft 487 kts 256°
2026-05-01 08:49 55.65859 34.33726 30588 ft 488 kts 256°
2026-05-01 08:49 55.64678 34.28076 30836 ft 490 kts 256°
2026-05-01 08:49 55.63502 34.22414 31171 ft 490 kts 256°
2026-05-01 08:50 55.62327 34.16764 31502 ft 489 kts 256°
2026-05-01 08:50 55.61146 34.11133 31809 ft 488 kts 256°
2026-05-01 08:50 55.59962 34.05525 32118 ft 487 kts 256°
2026-05-01 08:50 55.58792 33.99985 32262 ft 487 kts 255°
2026-05-01 08:51 55.56440 33.88788 32256 ft 486 kts 256°
2026-05-01 08:51 55.54068 33.77617 32245 ft 486 kts 255°
2026-05-01 08:52 55.51689 33.66448 32242 ft 486 kts 256°
2026-05-01 08:52 55.49889 33.55144 32235 ft 480 kts 262°
2026-05-01 08:53 55.48264 33.43819 32239 ft 479 kts 262°
2026-05-01 08:53 55.46589 33.32456 32238 ft 479 kts 262°
2026-05-01 08:54 55.44909 33.21090 32240 ft 479 kts 262°
2026-05-01 08:54 55.43248 33.09727 32250 ft 480 kts 262°
2026-05-01 08:55 55.41563 32.98432 32249 ft 480 kts 262°
2026-05-01 08:55 55.39846 32.87063 32251 ft 481 kts 262°
2026-05-01 08:56 55.38122 32.75672 32250 ft 483 kts 262°
2026-05-01 08:56 55.36379 32.64256 32251 ft 484 kts 262°
2026-05-01 08:57 55.34629 32.52834 32249 ft 485 kts 262°
2026-05-01 08:57 55.32872 32.41527 32248 ft 485 kts 262°
2026-05-01 08:58 55.31099 32.30096 32251 ft 485 kts 262°
2026-05-01 08:58 55.29303 32.18675 32251 ft 486 kts 262°
2026-05-01 08:59 55.27497 32.07254 32251 ft 486 kts 262°
2026-05-01 08:59 55.25702 31.95915 32251 ft 486 kts 262°
2026-05-01 09:00 55.23867 31.84484 32254 ft 488 kts 262°
2026-05-01 09:00 55.22024 31.73039 32261 ft 489 kts 262°
2026-05-01 09:01 55.20167 31.61594 32261 ft 488 kts 262°
2026-05-01 09:01 55.18325 31.50261 32260 ft 487 kts 262°
2026-05-01 09:02 55.16448 31.38889 32262 ft 487 kts 262°
2026-05-01 09:02 55.14552 31.27568 32259 ft 487 kts 262°
2026-05-01 09:03 55.12640 31.16201 32264 ft 487 kts 262°
2026-05-01 09:03 55.10736 31.04862 32268 ft 487 kts 262°
2026-05-01 09:04 55.08388 30.93755 32266 ft 498 kts 252°
2026-05-01 09:04 55.05389 30.82842 32261 ft 499 kts 251°
2026-05-01 09:05 55.02403 30.71913 32256 ft 499 kts 252°
2026-05-01 09:05 54.99410 30.61007 32256 ft 499 kts 251°
2026-05-01 09:06 54.96420 30.50193 32263 ft 499 kts 251°
2026-05-01 09:06 54.93387 30.39320 32259 ft 500 kts 251°
2026-05-01 09:07 54.90330 30.28459 32263 ft 500 kts 251°
2026-05-01 09:07 54.87308 30.17646 32271 ft 499 kts 251°
2026-05-01 09:08 54.84282 30.06820 32267 ft 499 kts 251°
2026-05-01 09:08 54.81226 29.96047 32270 ft 503 kts 251°
2026-05-01 09:09 54.78132 29.85144 32272 ft 505 kts 251°
2026-05-01 09:09 54.75006 29.74244 32280 ft 505 kts 251°
2026-05-01 09:10 54.71880 29.63367 32280 ft 505 kts 250°
2026-05-01 09:10 54.68760 29.52579 32278 ft 505 kts 251°
2026-05-01 09:11 54.65692 29.41707 32281 ft 504 kts 252°
2026-05-01 09:11 54.62670 29.30782 32282 ft 504 kts 252°
2026-05-01 09:12 54.59634 29.19885 32278 ft 504 kts 251°
2026-05-01 09:12 54.56603 29.09089 32288 ft 504 kts 251°
2026-05-01 09:13 54.53556 28.98239 32290 ft 502 kts 251°
2026-05-01 09:13 54.50507 28.87430 32289 ft 502 kts 251°
2026-05-01 09:14 54.47533 28.76589 32291 ft 499 kts 254°
2026-05-01 09:14 54.44787 28.65713 32289 ft 500 kts 254°
2026-05-01 09:15 54.42005 28.54765 32300 ft 500 kts 254°
2026-05-01 09:15 54.39202 28.43842 32300 ft 500 kts 254°
2026-05-01 09:16 54.36404 28.32919 32300 ft 500 kts 254°
2026-05-01 09:17 54.32178 28.16587 32293 ft 503 kts 253°
2026-05-01 09:17 54.27902 28.00206 32289 ft 503 kts 253°
2026-05-01 09:18 54.23623 27.83850 32287 ft 502 kts 253°
2026-05-01 09:19 54.19323 27.67612 32290 ft 502 kts 253°
2026-05-01 09:20 54.14999 27.51397 32289 ft 499 kts 253°
2026-05-01 09:21 54.09028 27.29968 32292 ft 504 kts 247°
2026-05-01 09:21 54.03810 27.14501 32300 ft 504 kts 246°
2026-05-01 09:22 53.96811 26.93919 32301 ft 504 kts 246°
2026-05-01 09:23 53.91595 26.78493 32299 ft 504 kts 246°
2026-05-01 09:24 53.85468 26.63871 32312 ft 511 kts 235°
2026-05-01 09:25 53.76455 26.45300 32310 ft 510 kts 235°
2026-05-01 09:26 53.69750 26.31524 32308 ft 508 kts 235°
2026-05-01 09:26 53.62998 26.17740 32312 ft 508 kts 235°
2026-05-01 09:27 53.56272 26.04060 32315 ft 508 kts 235°
2026-05-01 09:28 53.51748 25.94929 32312 ft 508 kts 234°
2026-05-01 09:28 53.47220 25.85825 32311 ft 507 kts 234°
2026-05-01 09:29 53.40424 25.72169 32313 ft 509 kts 234°
2026-05-01 09:30 53.33619 25.58603 32308 ft 509 kts 234°
2026-05-01 09:30 53.26769 25.45004 32309 ft 510 kts 234°
2026-05-01 09:31 53.22203 25.35929 32311 ft 510 kts 234°
2026-05-01 09:32 53.15359 25.22457 32334 ft 510 kts 233°
2026-05-01 09:32 53.08458 25.08957 32332 ft 510 kts 233°
2026-05-01 09:33 53.03846 24.99978 32336 ft 510 kts 233°
2026-05-01 09:34 52.97703 24.88065 32342 ft 510 kts 233°
2026-05-01 09:34 52.90019 24.73246 32332 ft 509 kts 233°
2026-05-01 09:35 52.83857 24.61418 32329 ft 509 kts 233°
2026-05-01 09:36 52.79221 24.52558 32330 ft 509 kts 233°
2026-05-01 09:36 52.74571 24.43704 32333 ft 510 kts 232°
2026-05-01 09:37 52.69920 24.34879 32332 ft 509 kts 232°
2026-05-01 09:37 52.62974 24.21754 32328 ft 509 kts 232°
2026-05-01 09:38 52.55978 24.08606 32319 ft 509 kts 232°
2026-05-01 09:39 52.48957 23.95492 32322 ft 509 kts 232°
2026-05-01 09:39 52.44306 23.86843 32320 ft 509 kts 232°
2026-05-01 09:40 52.37269 23.73812 32319 ft 509 kts 232°
2026-05-01 09:41 52.32577 23.65157 32321 ft 508 kts 232°
2026-05-01 09:41 52.25558 23.52273 32320 ft 508 kts 231°
2026-05-01 09:42 52.20796 23.43765 32321 ft 509 kts 229°
2026-05-01 09:43 52.12067 23.25844 32319 ft 504 kts 237°
2026-05-01 09:43 52.07889 23.16799 32328 ft 503 kts 237°
2026-05-01 09:44 52.01553 23.03229 32330 ft 502 kts 237°
2026-05-01 09:45 51.97335 22.94198 32329 ft 503 kts 236°
2026-05-01 09:45 51.90951 22.80624 32340 ft 505 kts 236°
2026-05-01 09:46 51.86721 22.71671 32341 ft 504 kts 236°
2026-05-01 09:46 51.82463 22.62677 32334 ft 503 kts 236°
2026-05-01 09:47 51.78218 22.53696 32345 ft 502 kts 236°
2026-05-01 09:47 51.73839 22.44900 32343 ft 501 kts 236°
2026-05-01 09:48 51.69672 22.35895 32343 ft 501 kts 237°
2026-05-01 09:48 51.65482 22.27029 32346 ft 500 kts 236°
2026-05-01 09:49 51.61206 22.18178 32353 ft 500 kts 235°
2026-05-01 09:49 51.56928 22.09335 32346 ft 501 kts 235°
2026-05-01 09:50 51.52651 22.00514 32354 ft 501 kts 235°
2026-05-01 09:50 51.48398 21.91764 32357 ft 500 kts 235°
2026-05-01 09:51 51.44113 21.82980 32353 ft 500 kts 235°
2026-05-01 09:51 51.39814 21.74215 32351 ft 500 kts 234°
2026-05-01 09:52 51.35503 21.65473 32354 ft 501 kts 234°
2026-05-01 09:52 51.31174 21.56729 32350 ft 501 kts 234°
2026-05-01 09:53 51.26895 21.48014 32344 ft 502 kts 234°
2026-05-01 09:53 51.22561 21.39283 32349 ft 502 kts 234°
2026-05-01 09:54 51.18225 21.30568 32344 ft 502 kts 234°
2026-05-01 09:54 51.13878 21.21853 32352 ft 502 kts 234°
2026-05-01 09:55 51.09572 21.13202 32353 ft 502 kts 234°
2026-05-01 09:55 51.05216 21.04512 32345 ft 502 kts 234°
2026-05-01 09:56 51.00857 20.95843 32352 ft 502 kts 234°
2026-05-01 09:56 50.96475 20.87199 32359 ft 503 kts 234°
2026-05-01 09:57 50.92124 20.78609 32361 ft 502 kts 234°
2026-05-01 09:57 50.87754 20.69995 32362 ft 502 kts 234°
2026-05-01 09:58 50.83371 20.61398 32354 ft 502 kts 233°
2026-05-01 09:58 50.78975 20.52825 32352 ft 502 kts 233°
2026-05-01 09:59 50.74557 20.44289 32368 ft 502 kts 233°
2026-05-01 09:59 50.70160 20.35734 32368 ft 502 kts 233°
2026-05-01 10:00 50.65785 20.27262 32370 ft 502 kts 233°
2026-05-01 10:00 50.61593 20.18471 32368 ft 501 kts 237°
2026-05-01 10:01 50.57487 20.09613 32368 ft 501 kts 237°
2026-05-01 10:01 50.53404 20.00825 32371 ft 501 kts 237°
2026-05-01 10:02 50.49291 19.92008 32372 ft 499 kts 236°
2026-05-01 10:02 50.45188 19.83208 32380 ft 500 kts 237°
2026-05-01 10:03 50.41082 19.74405 32381 ft 500 kts 237°
2026-05-01 10:03 50.36953 19.65630 32379 ft 500 kts 236°
2026-05-01 10:04 50.32842 19.56953 32380 ft 499 kts 236°
2026-05-01 10:04 50.28702 19.48232 32382 ft 499 kts 236°
2026-05-01 10:05 50.24561 19.39521 32380 ft 498 kts 236°
2026-05-01 10:05 50.20424 19.30847 32382 ft 498 kts 236°
2026-05-01 10:06 50.16267 19.22193 32381 ft 498 kts 236°
2026-05-01 10:06 50.12142 19.13611 32381 ft 498 kts 236°
2026-05-01 10:07 50.07981 19.05001 32381 ft 497 kts 236°
2026-05-01 10:07 50.03835 18.96433 32380 ft 496 kts 235°
2026-05-01 10:08 49.97629 18.83667 32386 ft 497 kts 235°
2026-05-01 10:09 49.93437 18.75078 32393 ft 500 kts 234°
2026-05-01 10:09 49.89232 18.66508 32394 ft 499 kts 234°
2026-05-01 10:10 49.85036 18.57955 32400 ft 498 kts 234°
2026-05-01 10:10 49.78763 18.45242 32400 ft 497 kts 234°
2026-05-01 10:11 49.74558 18.36765 32408 ft 496 kts 234°
2026-05-01 10:11 49.70344 18.28306 32410 ft 496 kts 234°
2026-05-01 10:12 49.66145 18.19872 32410 ft 495 kts 234°
2026-05-01 10:13 49.59862 18.07299 32411 ft 496 kts 234°
2026-05-01 10:13 49.55647 17.98890 32409 ft 497 kts 234°
2026-05-01 10:14 49.49310 17.86312 32411 ft 496 kts 234°
2026-05-01 10:14 49.45079 17.77942 32410 ft 496 kts 234°
2026-05-01 10:15 49.40833 17.69589 32418 ft 496 kts 234°
2026-05-01 10:15 49.36597 17.61284 32422 ft 497 kts 233°
2026-05-01 10:16 49.32359 17.52909 32417 ft 497 kts 237°
2026-05-01 10:17 49.26816 17.39537 32431 ft 495 kts 240°
2026-05-01 10:17 49.21351 17.26193 32429 ft 497 kts 240°
2026-05-01 10:18 49.15825 17.12789 32430 ft 496 kts 240°
2026-05-01 10:19 49.12129 17.03871 32422 ft 497 kts 240°
2026-05-01 10:19 49.08428 16.94977 32420 ft 496 kts 240°
2026-05-01 10:20 49.02886 16.81732 32411 ft 496 kts 239°
2026-05-01 10:20 48.99170 16.72889 32411 ft 496 kts 239°
2026-05-01 10:21 48.93590 16.59627 32409 ft 496 kts 239°
2026-05-01 10:22 48.88015 16.46450 32421 ft 496 kts 239°
2026-05-01 10:23 48.82404 16.33250 32420 ft 497 kts 239°
2026-05-01 10:23 48.76743 16.20082 32428 ft 498 kts 237°
2026-05-01 10:24 48.68677 16.03082 32438 ft 499 kts 236°
2026-05-01 10:25 48.60563 15.86112 32440 ft 497 kts 236°
2026-05-01 10:26 48.56513 15.77644 32440 ft 497 kts 235°
2026-05-01 10:27 48.48393 15.60812 32439 ft 498 kts 235°
2026-05-01 10:28 48.42289 15.48185 32450 ft 497 kts 235°
2026-05-01 10:28 48.36187 15.35664 32443 ft 497 kts 235°
2026-05-01 10:29 48.30058 15.23128 32454 ft 496 kts 235°
2026-05-01 10:30 48.21909 15.06575 32459 ft 494 kts 235°
2026-05-01 10:31 48.13750 14.90054 32457 ft 493 kts 235°
2026-05-01 10:32 48.07626 14.77738 32463 ft 492 kts 234°
2026-05-01 10:33 47.99477 14.61457 32460 ft 490 kts 234°
2026-05-01 10:34 47.93311 14.49175 32455 ft 494 kts 234°
2026-05-01 10:34 47.89200 14.40981 32464 ft 493 kts 235°
2026-05-01 10:35 47.83154 14.28678 32462 ft 493 kts 235°
2026-05-01 10:35 47.79103 14.20489 32450 ft 491 kts 235°
2026-05-01 10:36 47.73004 14.08231 32453 ft 491 kts 235°
2026-05-01 10:37 47.68937 14.00075 32439 ft 492 kts 235°
2026-05-01 10:37 47.62848 13.87924 32440 ft 491 kts 235°
2026-05-01 10:38 47.58763 13.79799 32432 ft 492 kts 235°
2026-05-01 10:38 47.54674 13.71685 32425 ft 491 kts 234°
2026-05-01 10:39 47.50572 13.63578 32436 ft 493 kts 234°
2026-05-01 10:39 47.46488 13.55522 32420 ft 493 kts 234°
2026-05-01 10:40 47.42373 13.47431 32424 ft 493 kts 234°
2026-05-01 10:40 47.38248 13.39355 32421 ft 493 kts 234°
2026-05-01 10:41 47.34116 13.31279 32421 ft 493 kts 234°
2026-05-01 10:42 47.27932 13.19238 32418 ft 493 kts 234°
2026-05-01 10:42 47.23793 13.11205 32415 ft 494 kts 234°
2026-05-01 10:43 47.19637 13.03164 32426 ft 494 kts 234°
2026-05-01 10:43 47.15474 12.95137 32414 ft 494 kts 234°
2026-05-01 10:44 47.11330 12.87168 32401 ft 494 kts 234°
2026-05-01 10:44 47.07158 12.79166 32395 ft 494 kts 234°
2026-05-01 10:45 47.02980 12.71175 32405 ft 494 kts 234°
2026-05-01 10:45 46.98794 12.63201 32401 ft 494 kts 234°
2026-05-01 10:46 46.94597 12.55241 32395 ft 493 kts 234°
2026-05-01 10:46 46.90427 12.47342 32405 ft 495 kts 234°
2026-05-01 10:47 46.86214 12.39387 32405 ft 494 kts 234°
2026-05-01 10:47 46.82004 12.31442 32416 ft 496 kts 234°
2026-05-01 10:48 46.77725 12.23545 32409 ft 496 kts 232°
2026-05-01 10:48 46.73397 12.15718 32411 ft 496 kts 232°
2026-05-01 10:49 46.69092 12.07959 32409 ft 496 kts 232°
2026-05-01 10:49 46.64747 12.00144 32399 ft 495 kts 232°
2026-05-01 10:50 46.60407 11.92364 32407 ft 494 kts 232°
2026-05-01 10:50 46.56076 11.84625 32407 ft 494 kts 232°
2026-05-01 10:51 46.51726 11.76870 32405 ft 495 kts 232°
2026-05-01 10:51 46.47397 11.69171 32403 ft 496 kts 232°
2026-05-01 10:52 46.43029 11.61429 32404 ft 496 kts 232°
2026-05-01 10:52 46.38660 11.53708 32400 ft 495 kts 232°
2026-05-01 10:53 46.34284 11.46017 32396 ft 494 kts 232°
2026-05-01 10:53 46.29948 11.38386 32387 ft 494 kts 232°
2026-05-01 10:54 46.25578 11.30722 32393 ft 494 kts 232°
2026-05-01 10:54 46.21217 11.23090 32391 ft 492 kts 232°
2026-05-01 10:55 46.16859 11.15495 32401 ft 491 kts 232°
2026-05-01 10:55 46.12497 11.07917 32410 ft 490 kts 232°
2026-05-01 10:56 46.08138 11.00463 32409 ft 489 kts 231°
2026-05-01 10:56 46.03727 10.93014 32418 ft 489 kts 231°
2026-05-01 10:57 45.99329 10.85583 32409 ft 488 kts 231°
2026-05-01 10:57 45.94924 10.78157 32416 ft 489 kts 231°
2026-05-01 10:58 45.90545 10.70800 32413 ft 487 kts 231°
2026-05-01 10:58 45.86134 10.63410 32422 ft 487 kts 231°
2026-05-01 10:59 45.81722 10.56041 32420 ft 486 kts 231°
2026-05-01 10:59 45.77321 10.48703 32420 ft 486 kts 231°
2026-05-01 11:00 45.72939 10.41417 32418 ft 486 kts 231°
2026-05-01 11:00 45.68527 10.34102 32430 ft 485 kts 231°
2026-05-01 11:01 45.64121 10.26815 32426 ft 485 kts 231°
2026-05-01 11:01 45.59708 10.19537 32417 ft 485 kts 230°
2026-05-01 11:02 45.55288 10.12263 32410 ft 484 kts 230°
2026-05-01 11:02 45.50901 10.05064 32411 ft 485 kts 230°
2026-05-01 11:03 45.46477 9.97824 32416 ft 485 kts 230°
2026-05-01 11:03 45.42062 9.90605 32421 ft 482 kts 230°
2026-05-01 11:04 45.37651 9.83407 32422 ft 482 kts 230°
2026-05-01 11:04 45.33265 9.76270 32419 ft 482 kts 230°
2026-05-01 11:05 45.28848 9.69097 32420 ft 482 kts 230°
2026-05-01 11:05 45.24424 9.61940 32418 ft 481 kts 230°
2026-05-01 11:05 45.22219 9.58379 32290 ft 478 kts 230°
2026-05-01 11:06 45.20045 9.54873 31974 ft 468 kts 230°
2026-05-01 11:06 45.17921 9.51453 31615 ft 460 kts 230°
2026-05-01 11:06 45.15849 9.48115 31302 ft 451 kts 230°
2026-05-01 11:07 45.11762 9.41545 30769 ft 441 kts 230°
2026-05-01 11:07 45.09737 9.38292 30510 ft 439 kts 230°
2026-05-01 11:07 45.07724 9.35064 30269 ft 438 kts 230°
2026-05-01 11:07 45.05713 9.31846 30032 ft 436 kts 230°
2026-05-01 11:08 45.03705 9.28640 29771 ft 434 kts 230°
2026-05-01 11:08 45.01708 9.25456 29521 ft 432 kts 230°
2026-05-01 11:08 44.97732 9.19121 29021 ft 430 kts 230°
2026-05-01 11:09 44.95777 9.16012 28770 ft 427 kts 230°
2026-05-01 11:09 44.93811 9.12883 28526 ft 426 kts 230°
2026-05-01 11:09 44.91848 9.09766 28284 ft 423 kts 230°
2026-05-01 11:10 44.87942 9.03578 27769 ft 421 kts 230°
2026-05-01 11:10 44.86005 9.00511 27521 ft 419 kts 230°
2026-05-01 11:10 44.84065 8.97444 27270 ft 417 kts 230°
2026-05-01 11:10 44.82139 8.94405 27019 ft 415 kts 230°
2026-05-01 11:11 44.80244 8.91415 26773 ft 414 kts 230°
2026-05-01 11:11 44.78328 8.88396 26523 ft 412 kts 230°
2026-05-01 11:11 44.76422 8.85397 26275 ft 411 kts 230°
2026-05-01 11:11 44.74519 8.82404 26022 ft 410 kts 230°
2026-05-01 11:12 44.72623 8.79428 25771 ft 408 kts 230°